Weather History for Cold Bay, AK

Change the Weather History Date:

Thursday, January 10, 2013

  Actual Average Record
Temperature  
Mean Temperature 36 °F 28 °F  
Max Temperature 40 °F 33 °F 44 °F (1998)
Min Temperature 32 °F 24 °F 3 °F (2001)
Degree Days  
Heating Degree Days 29 37  
Month to date heating degree days 325 362  
Since 1 July heating degree days 4754 4439  
Cooling Degree Days 0    
Month to date cooling degree days 0  
Year to date cooling degree days 0  
Moisture  
Dew Point 32 °F    
Average Humidity 0    
Maximum Humidity 0    
Minimum Humidity 0    
Precipitation  
Precipitation 0.34 in 0.11 in 1.02 in (1957)
Month to date precipitation 1.24 1.07  
Year to date precipitation 1.24 1.07  
Snow  
Snow 0.30 in 0.50 in 13.40 in (2000)
Month to date snowfall 2.1 4.6  
Since 1 July snowfall 24.5 29.8  
Snow Depth T in    
Sea Level Pressure  
Sea Level Pressure 29.66 in    
Wind  
Wind Speed 23 mph (South)    
Max Wind Speed 38 mph    
Max Gust Speed 47 mph    
Visibility 9 miles    
Events Rain , Snow    
T = Trace of Precipitation, MM = Missing Value Source: NWS Daily Summary

Daily Weather History Graph

Daily Weather History Graph

Search for Another Location

Airport:

Trip Planner

Search our weather history database for the weather conditions in past years. The results will help you decide how hot, cold, wet, or windy it might be!

Date:

Astronomy

Jan. 10, 2013 Rise Set
Actual Time 10:12 AM AKST 5:45 PM AKST
Civil Twilight 9:27 AM AKST 6:29 PM AKST
Nautical Twilight 8:41 AM AKST 7:16 PM AKST
Astronomical Twilight 7:57 AM AKST 8:00 PM AKST
Moon 9:01 AM AKST (1/10) 5:11 PM AKST (1/10)
Length of Visible Light 9h 01m
Length of Day
7h 33m
Waning Crescent, 1% of the Moon is Illuminated
Jan 10
Waning Crescent
Jan 11
New
Jan 18
First Quarter
Jan 26
Full
Feb 3
Last Quarter

Hourly Weather History & Observations

Time (AKST) Temp. Windchill Dew Point Humidity Pressure Visibility Wind Dir Wind Speed Gust Speed Precip Events Conditions
12:53 AM 37.0 °F 24.5 °F 33.1 °F 86% 29.78 in 10.0 mi SSE 29.9 mph 36.8 mph N/A   Clear
1:53 AM 37.0 °F 24.3 °F 34.0 °F 89% 29.78 in 10.0 mi SSE 31.1 mph 39.1 mph N/A   Clear
3:53 AM 37.0 °F 23.3 °F 34.0 °F 89% 29.76 in 10.0 mi SSE 36.8 mph 43.7 mph N/A   Mostly Cloudy
4:06 AM 37.4 °F 23.8 °F 33.8 °F 87% 29.75 in 10.0 mi SSE 36.8 mph 44.9 mph N/A   Mostly Cloudy
4:17 AM 37.4 °F 24.0 °F 33.8 °F 87% 29.76 in 10.0 mi SSE 35.7 mph 46.0 mph N/A   Mostly Cloudy
4:35 AM 35.6 °F 22.1 °F 33.8 °F 93% 29.74 in 10.0 mi SSE 32.2 mph - N/A   Scattered Clouds
4:53 AM 36.0 °F 22.2 °F 33.1 °F 89% 29.76 in 10.0 mi SSE 34.5 mph - N/A   Clear
5:29 AM 35.6 °F 23.0 °F 33.8 °F 93% 29.76 in 10.0 mi SSE 27.6 mph 35.7 mph N/A   Partly Cloudy
5:41 AM 35.6 °F 22.7 °F 33.8 °F 93% 29.76 in 10.0 mi SSE 28.8 mph 35.7 mph N/A   Mostly Cloudy
5:53 AM 36.0 °F 22.6 °F 33.1 °F 89% 29.77 in 10.0 mi SSE 32.2 mph 40.3 mph N/A   Overcast
6:40 AM 35.6 °F 23.7 °F 33.8 °F 93% 29.75 in 10.0 mi SE 24.2 mph 29.9 mph N/A   Overcast
6:53 AM 36.0 °F 24.2 °F 33.1 °F 89% 29.74 in 10.0 mi SSE 24.2 mph 32.2 mph N/A   Mostly Cloudy
7:53 AM 36.0 °F 24.4 °F 32.0 °F 86% 29.73 in 10.0 mi SE 23.0 mph 32.2 mph N/A   Mostly Cloudy
8:05 AM 37.4 °F 26.1 °F 32.0 °F 81% 29.73 in 10.0 mi SE 24.2 mph 32.2 mph N/A   Scattered Clouds
8:53 AM 37.0 °F 25.1 °F 30.0 °F 76% 29.71 in 10.0 mi SE 26.5 mph 34.5 mph N/A   Clear
9:53 AM 37.0 °F 23.9 °F 32.0 °F 82% 29.67 in 9.0 mi SE 33.4 mph 41.4 mph 0.00 in   Mostly Cloudy
10:27 AM 39.2 °F 29.0 °F 33.8 °F 81% 29.64 in 10.0 mi ESE 21.9 mph 32.2 mph N/A   Overcast
10:53 AM 37.9 °F 27.1 °F 34.0 °F 86% 29.60 in 10.0 mi SE 23.0 mph 28.8 mph N/A   Overcast
11:01 AM 39.2 °F 29.3 °F 33.8 °F 81% 29.60 in 10.0 mi SE 20.7 mph 31.1 mph N/A   Overcast
11:11 AM 39.2 °F 29.3 °F 33.8 °F 81% 29.60 in 10.0 mi SE 20.7 mph 33.4 mph N/A   Overcast
11:53 AM 39.0 °F 26.4 °F 34.0 °F 82% 29.54 in 10.0 mi SE 34.5 mph 41.4 mph N/A   Mostly Cloudy
12:08 PM 39.2 °F 26.8 °F 33.8 °F 81% 29.53 in 10.0 mi SSE 33.4 mph 41.4 mph N/A   Scattered Clouds
12:53 PM 39.0 °F 26.6 °F 34.0 °F 82% 29.54 in 10.0 mi SSE 33.4 mph 42.6 mph N/A   Mostly Cloudy
1:01 PM 39.2 °F 26.6 °F 33.8 °F 81% 29.53 in 10.0 mi SSE 34.5 mph 41.4 mph N/A   Mostly Cloudy
1:53 PM 39.0 °F 28.0 °F 35.1 °F 86% 29.51 in 7.0 mi SSE 25.3 mph 33.4 mph 0.00 in Rain Light Rain
2:16 PM 37.4 °F 25.9 °F 33.8 °F 87% 29.49 in 10.0 mi SE 25.3 mph 33.4 mph 0.00 in Rain Light Rain
2:31 PM 37.4 °F 26.4 °F 35.6 °F 93% 29.49 in 9.0 mi SE 23.0 mph 29.9 mph 0.01 in Rain Light Rain
2:53 PM 37.9 °F 27.6 °F 34.0 °F 86% 29.50 in 9.0 mi SSE 20.7 mph 28.8 mph 0.01 in Rain Light Rain
3:20 PM 37.4 °F 26.9 °F 33.8 °F 87% 29.54 in 5.0 mi South 20.7 mph 26.5 mph 0.04 in Rain Light Rain
3:53 PM 35.1 °F 24.1 °F 32.0 °F 89% 29.56 in 5.0 mi SSE 19.6 mph - 0.13 in Rain Light Rain
4:29 PM 33.8 °F 29.6 °F 32.0 °F 93% 29.53 in 3.0 mi SSW 4.6 mph - 0.14 in Snow Light Snow
4:40 PM 33.8 °F 30.8 °F 33.8 °F 100% 29.54 in 4.0 mi SW 3.5 mph - 0.16 in Snow Light Snow
4:53 PM 34.0 °F 26.0 °F 33.1 °F 96% 29.57 in 5.0 mi SW 10.4 mph - 0.16 in Snow Light Snow
4:59 PM 33.8 °F 27.0 °F 32.0 °F 93% 29.57 in 1.8 mi WSW 8.1 mph - 0.00 in Snow Light Snow
5:07 PM 33.8 °F 27.7 °F 32.0 °F 93% 29.57 in 2.0 mi West 6.9 mph - 0.03 in Snow Light Snow
5:14 PM 33.8 °F 27.7 °F 32.0 °F 93% 29.58 in 5.0 mi West 6.9 mph - 0.04 in Snow Light Snow
5:53 PM 35.1 °F 31.0 °F 33.1 °F 92% 29.61 in 10.0 mi WSW 4.6 mph - 0.04 in   Overcast
6:41 PM 35.6 °F 23.2 °F 30.2 °F 81% 29.62 in 10.0 mi West 26.5 mph - 0.00 in   Scattered Clouds
6:53 PM 36.0 °F 23.5 °F 30.9 °F 82% 29.62 in 10.0 mi West 27.6 mph - 0.00 in   Scattered Clouds
7:03 PM 35.6 °F 24.2 °F 30.2 °F 81% 29.64 in 10.0 mi West 21.9 mph - N/A   Mostly Cloudy
7:15 PM 35.6 °F 25.9 °F 30.2 °F 81% 29.66 in 10.0 mi West 16.1 mph - N/A   Scattered Clouds
7:53 PM 35.1 °F 26.4 °F 30.0 °F 82% 29.68 in 10.0 mi West 12.7 mph - N/A   Clear
8:53 PM 35.1 °F 24.8 °F 30.0 °F 82% 29.71 in 10.0 mi West 17.3 mph - N/A   Mostly Cloudy
9:23 PM 35.6 °F 29.2 °F 30.2 °F 81% 29.72 in 10.0 mi West 8.1 mph - N/A   Partly Cloudy
9:53 PM 34.0 °F 26.0 °F 30.0 °F 85% 29.75 in 9.0 mi WSW 10.4 mph - N/A   Scattered Clouds
10:04 PM 33.8 °F 24.8 °F 30.2 °F 87% 29.74 in 8.0 mi WSW 12.7 mph - 0.00 in Snow Light Snow
10:18 PM 33.8 °F 24.3 °F 30.2 °F 87% 29.76 in 10.0 mi WSW 13.8 mph - 0.00 in   Scattered Clouds
10:39 PM 33.8 °F 25.3 °F 30.2 °F 87% 29.78 in 10.0 mi WSW 11.5 mph - 0.00 in   Mostly Cloudy
10:53 PM 34.0 °F 25.5 °F 30.0 °F 85% 29.79 in 10.0 mi SW 11.5 mph - 0.00 in   Scattered Clouds
11:53 PM 32.0 °F 24.2 °F 28.9 °F 88% 29.82 in 10.0 mi SW 9.2 mph - N/A   Scattered Clouds